RS-44 & BREEZE-KM R/B

Last updated on Mon Sep 21 2026 00:03:14 GMT+0000 (Coordinated Universal Time)

1 44909U 19096E 26263.46213625 .00000024 00000+0 58403-4 0 9998 2 44909 82.5167 276.3954 0216347 281.6877 76.0021 12.79749407314537
UTC large
Height (km)
Speed (km/s)
/
Latitude / Longitude
Inclination (degrees)
Orbital Period (minutes)
Azimuth
Elevation
Range (km)
Doppler Factor

Next 0 passes for location: London (51.5072 / 0.1276)

No passes found over London.
RS-44 & BREEZE-KM R/B